Home   Weather   Mesquite   Past weeks

Flag for USA Past Weather in Mesquite, Texas, USA — Yesterday and Last 2 Weeks

Now
58 °F

Clear.


Feels Like: 58 °F
Forecast: 59 / 74 °F
Wind: 5 mph from Southeast

Location: Mesquite Metro Airport

Current Time: Feb 19, 2017 at 6:03:38 am

Latest Report: Feb 19, 2017 at 5:35 am


Visibility: 5 mi

Pressure: 29.89 "Hg

Humidity: 97%

Dew Point: 57 °F

Location of MesquiteLocation

Past Weather in Mesquite — Graph

°F

Mesquite Temperature Yesterday

Maximum temperature yesterday: 79 °F (at 2:50 pm)
Minimum temperature yesterday: 56 °F (at 5:15 am)
Average temperature yesterday: 64 °F

High & Low Weather Summary for the Past Weeks

 TemperatureHumidityPressure
High84 °F (Feb 11, 2:50 pm)100% (Feb 5, 7:50 am)30.42 "Hg (Feb 5, 7:50 am)
Low32 °F (Feb 16, 6:50 am)17% (Feb 7, 3:50 pm)29.64 "Hg (Feb 8, 4:35 am)
Average57 °F67%30.00 "Hg
* Reported Feb 4 4:35 am — Feb 19 4:55 am, Mesquite, Weather by CustomWeather, © 2017

Note: Actual official high and low records may vary slightly from our data, if they occured in-between our weather recording intervals... More about our weather records

Advertising

Mesquite Weather History for the Previous 24 Hours

Scroll right to see more
 ConditionsComfort  
Time TempWeatherWind HumidityBarometerVisibility
4:55 am
Sun, Feb 19
58 °FClear.5 mph95%29.88 "Hg7 mi
4:15 am58 °FClear.6 mph93%29.87 "Hg10 mi
3:55 am59 °FClear.6 mph92%29.87 "Hg10 mi
3:15 am61 °FPassing clouds.6 mph85%29.89 "Hg10 mi
2:55 am61 °FPassing clouds.9 mph85%29.89 "Hg10 mi
2:15 am58 °FClear.6 mph93%29.88 "Hg10 mi
1:55 am58 °FClear.3 mph92%29.87 "Hg10 mi
1:35 am58 °FClear.No wind90%29.87 "Hg10 mi
12:55 am60 °FClear.6 mph86%29.85 "Hg10 mi
12:15 am61 °FClear.5 mph84%29.84 "Hg10 mi
11:55 pm
Sat, Feb 18
61 °FClear.5 mph84%29.83 "Hg10 mi
11:15 pm62 °FClear.8 mph81%29.83 "Hg10 mi
10:35 pm63 °FClear.8 mph76%29.82 "Hg10 mi
9:55 pm64 °FClear.6 mph72%29.81 "Hg10 mi
9:15 pm64 °FClear.6 mph68%29.81 "Hg10 mi
8:55 pm63 °FClear.6 mph66%29.80 "Hg10 mi
7:50 pm66 °FClear.6 mph49%29.78 "Hg10 mi
6:50 pm72 °FClear.5 mph41%29.76 "Hg10 mi
5:50 pm75 °FSunny.6 mph36%29.76 "Hg10 mi
4:50 pm79 °FSunny.8 mph34%29.74 "Hg10 mi
3:50 pm79 °FSunny.7 mph34%29.74 "Hg10 mi
2:50 pm79 °FSunny.5 mph39%29.74 "Hg10 mi
1:50 pm77 °FSunny.9 mph42%29.75 "Hg10 mi
12:50 pm75 °FSunny.9 mph47%29.77 "Hg10 mi
11:50 am73 °FSunny.9 mph53%29.80 "Hg10 mi
10:50 am66 °FScattered clouds.9 mph73%29.82 "Hg10 mi
9:50 am63 °FOvercast.8 mph83%29.82 "Hg10 mi
8:50 am59 °FMore clouds than sun.10 mph94%29.81 "Hg10 mi
7:50 am57 °FMore clouds than sun.10 mph94%29.78 "Hg10 mi
6:50 am57 °FLow clouds.8 mph94%29.77 "Hg10 mi
6:35 am56 °FLow clouds.8 mph98%29.77 "Hg7 mi
Weather by CustomWeather, © 2017

See weather overviewHow to use our weather pages